Theta_e
319 320 321 321 320 320 318 318 318 318 317 316 315 315 313 314 315 315 314 314 312 310 308 306 306 308 306 307 307 309 307 305 298 298 298 299 297 298 298 300 300 299 299
319 318 317 317 316 316 316 316 316 315 314 313 313 312 313 313 314 314 313 312 310 308 307 307 307 306 305 307 305 302 301 301 299 291 294 294 295 297 296 296 296 297 298
314 313 314 314 314 314 313 312 310 309 308 309 309 309 309 311 312 313 312 310 307 305 306 306 303 304 304 302 301 299 299 299 300 292 290 294 294 295 294 294 294 294 295
311 312 312 312 312 311 309 308 308 308 307 307 307 308 309 310 309 309 307 306 305 304 304 304 303 301 299 297 298 297 297 296 295 292 289 288 289 291 290 287 288 291 291
310 310 309 310 308 307 307 307 307 307 307 307 306 307 308 308 306 306 304 303 302 302 302 302 301 299 296 295 295 295 294 295 291 287 285 285 285 285 285 288 286 288 290
308 305 306 306 305 305 306 306 306 306 306 306 306 306 306 305 298 296 299 302 301 300 299 300 298 296 294 292 292 292 294 290 286 286 285 285 285 287 288 287 287 285 284
304 305 305 305 304 305 305 304 304 304 305 305 304 304 303 306 296 295 294 299 298 299 297 296 296 294 293 296 293 291 290 290 288 289 287 288 287 288 289 287 288 289 286
304 303 304 304 304 304 304 303 303 304 304 302 302 303 302 304 294 293 292 296 297 298 295 295 296 294 294 293 292 291 291 290 288 291 291 293 291 292 292 291 290 290 289
303 303 303 304 303 303 302 302 304 302 302 303 300 298 298 300 295 292 292 294 293 292 293 295 299 293 292 291 289 288 288 287 290 291 292 292 291 291 293 292 289 288 286
303 303 304 304 302 301 302 303 303 303 301 299 295 296 295 300 296 293 293 297 293 291 290 292 290 293 290 289 290 288 286 285 286 287 289 290 291 291 289 295 294 289 288
303 303 302 302 301 302 303 304 302 301 300 296 295 293 296 297 297 292 292 294 293 291 290 290 292 289 289 289 290 289 288 288 286 287 287 288 290 290 292 295 294 291 287
300 300 300 301 301 301 302 302 301 299 298 295 294 293 298 294 290 291 290 290 291 290 288 289 289 289 289 289 288 288 287 287 287 286 285 286 286 287 291 293 293 293 294
300 297 298 297 296 297 298 298 297 296 297 295 293 292 292 291 289 288 288 289 288 289 289 288 288 288 288 287 288 286 286 287 286 285 285 285 287 288 289 290 292 292 292
298 298 299 297 297 296 296 296 297 297 293 292 290 291 290 290 291 289 288 291 288 287 286 287 287 286 287 286 286 286 287 286 286 286 285 286 286 286 286 287 288 289 289
297 297 298 297 297 296 296 293 292 291 293 291 291 290 287 287 287 287 287 287 286 286 285 285 285 285 285 286 286 286 287 286 285 285 285 285 285 286 287 288 289 289 288
295 296 295 295 295 295 293 289 288 287 287 287 287 287 288 287 287 287 287 287 287 285 286 285 285 285 286 286 287 287 287 286 286 285 286 286 285 286 286 287 289 289 289
292 291 291 290 292 291 288 288 287 288 288 288 288 288 288 287 287 287 287 287 286 285 286 286 286 285 286 286 288 288 287 288 286 286 286 286 286 287 286 287 288 289 289
289 286 290 291 290 289 289 287 287 288 287 288 287 288 287 288 287 287 287 286 285 286 288 287 286 287 286 286 287 287 287 286 286 286 286 286 286 286 286 286 287 288 289
289 289 289 289 290 289 290 288 288 288 289 291 290 286 287 287 287 286 286 288 287 287 288 288 288 287 287 287 287 286 286 286 286 286 286 286 286 286 286 287 288 287 288
289 286 286 288 287 288 288 287 286 286 287 291 290 290 289 287 287 286 286 286 287 288 288 288 288 287 288 287 286 285 286 285 285 285 285 285 285 286 286 286 286 286 288
289 288 286 288 287 287 287 286 286 286 287 288 289 289 287 288 288 288 287 286 287 289 288 288 288 288 288 287 287 286 286 285 286 286 286 286 285 286 287 287 287 287 287
286 286 287 288 287 287 287 287 287 287 287 287 288 287 285 287 288 288 288 287 287 289 290 289 289 288 288 288 288 286 286 286 286 286 286 287 286 288 288 287 287 287 287
287 286 286 287 287 286 287 288 287 288 288 288 288 287 287 287 288 288 287 287 288 288 289 289 288 288 289 290 291 289 288 287 288 288 287 287 286 287 287 286 286 286 286
287 286 286 286 287 286 287 287 288 287 288 288 287 287 287 286 286 287 287 286 287 286 286 287 288 288 288 287 288 290 290 290 290 288 287 287 286 285 287 286 285 285 285
287 286 285 286 286 286 286 287 287 287 286 286 285 285 286 286 285 284 284 284 286 286 286 286 287 287 286 286 286 287 286 285 286 286 287 286 286 285 286 286 286 285 286
286 285 284 285 286 286 286 286 285 285 284 284 283 283 283 283 283 283 282 281 282 283 283 283 284 285 286 286 286 285 285 284 285 285 286 286 286 285 286 285 285 285 285
Wind_Speed
12 9 8 7 7 6 6 6 5 5 7 9 9 11 10 12 12 12 13 13 14 13 12 11 11 11 8 7 7 9 8 9 9 3 7 8 11 11 12 11 13 11 12
9 9 8 8 8 8 6 4 4 6 6 9 10 11 13 14 13 14 15 13 13 15 13 13 12 6 9 9 8 10 7 7 6 7 8 8 11 14 14 15 11 9 11
11 10 10 9 8 6 5 3 4 5 7 9 11 13 14 15 15 15 15 13 13 10 11 12 10 9 9 7 9 7 6 5 8 6 3 5 7 12 13 12 11 12 9
11 10 10 9 8 6 4 5 3 6 8 11 13 14 15 14 14 12 11 11 11 9 11 11 9 8 8 6 9 9 8 8 5 8 8 8 9 9 11 13 12 9 11
12 11 10 8 7 6 5 4 5 7 10 13 15 15 15 11 9 10 8 8 9 10 9 9 8 8 7 8 6 7 8 7 7 7 7 8 9 11 14 10 12 11 9
13 10 11 10 8 5 3 5 7 10 12 13 15 16 14 8 9 11 12 9 9 10 7 10 8 9 9 11 11 10 9 8 7 7 7 13 15 12 11 12 13 13 7
14 12 12 10 7 4 4 7 9 11 11 12 14 14 12 13 7 12 13 9 7 10 7 6 6 5 7 8 8 8 12 13 18 13 13 14 14 14 14 15 15 13 9
12 10 9 8 6 5 6 7 9 9 9 9 11 9 9 10 3 10 10 8 7 8 7 7 9 7 6 4 3 6 8 7 8 8 11 12 13 15 16 16 16 14 12
10 9 8 7 6 6 6 7 7 6 8 7 7 6 6 8 5 8 7 5 5 6 5 5 10 6 7 7 4 6 6 4 5 7 10 15 18 20 16 13 12 13 12
9 8 7 6 5 5 6 6 5 6 7 4 6 6 7 10 8 7 7 5 5 5 5 5 10 8 8 6 6 7 7 6 8 8 8 14 18 18 22 15 14 13 12
7 7 6 4 4 6 6 6 6 6 6 5 6 4 6 6 8 10 10 6 5 4 5 5 6 10 8 9 8 7 7 10 10 10 8 8 10 12 11 10 12 12 14
5 4 3 3 3 4 6 6 6 5 6 4 4 5 4 4 5 7 8 8 5 5 5 5 5 11 9 10 7 9 15 10 8 8 9 9 8 9 10 10 11 11 9
4 4 3 2 2 5 5 6 4 5 5 5 4 4 4 3 3 7 8 6 7 3 3 6 9 12 10 7 7 13 12 7 7 8 8 8 9 10 8 8 10 11 9
3 3 3 4 5 5 4 5 5 5 4 3 3 3 3 3 3 3 3 2 4 3 4 4 5 7 5 7 5 7 5 6 7 8 7 7 7 8 7 8 8 10 9
3 3 4 4 5 6 4 4 4 2 4 3 2 2 3 4 1 4 4 0 1 3 4 3 5 5 5 5 4 4 4 5 4 5 6 8 8 9 8 10 9 9 8
3 4 3 4 5 4 4 2 5 4 6 7 6 4 2 6 7 4 3 2 6 8 2 4 5 5 6 6 6 5 4 4 4 5 7 8 9 9 9 9 9 10 9
4 5 5 5 5 4 2 4 4 5 8 7 8 8 5 5 5 3 1 3 7 5 2 3 4 5 5 6 6 6 5 4 5 6 6 8 8 8 11 9 9 9 9
4 5 5 5 4 4 4 4 3 5 5 4 7 6 5 5 5 3 5 6 3 1 2 4 4 5 5 5 5 4 5 5 5 4 6 6 7 9 9 9 9 10 10
2 3 3 5 5 4 4 4 5 4 4 4 3 3 4 5 4 5 8 3 4 4 3 3 4 4 4 5 5 5 6 6 5 5 4 5 6 8 8 8 9 12 12
3 4 4 3 4 3 2 3 3 4 4 5 5 4 3 3 3 3 3 3 4 4 4 4 5 6 5 5 6 6 6 6 6 5 5 5 5 5 6 8 7 9 9
3 4 4 4 3 2 3 3 3 3 3 3 2 3 5 4 4 4 4 4 4 5 4 4 5 5 5 6 6 6 6 6 6 6 6 5 6 6 5 6 6 8 8
4 4 5 5 3 3 3 3 3 3 3 3 3 2 5 4 4 4 4 4 4 3 4 5 5 6 6 7 8 7 7 7 7 7 7 6 7 6 6 7 7 7 6
4 5 6 6 4 4 4 4 3 3 3 3 3 3 3 4 4 4 4 4 4 4 3 4 4 5 5 4 6 8 8 9 8 7 7 7 8 8 7 8 8 7 8
5 5 6 6 4 4 4 4 3 4 4 3 3 2 2 2 3 3 3 3 4 4 3 3 4 6 6 6 6 7 8 6 7 8 9 8 8 9 8 8 8 8 8
5 5 5 6 5 4 4 4 4 3 4 3 2 2 2 2 4 4 4 3 2 3 3 3 3 5 6 7 7 8 7 8 8 8 8 9 10 11 9 8 9 9 10
6 6 6 6 5 5 4 4 4 4 4 3 3 2 2 3 3 4 4 5 4 5 5 5 6 5 5 4 6 7 8 10 9 10 8 8 9 9 8 9 12 8 11
Wind_Direction
191 186 188 188 190 202 218 229 241 271 269 274 276 269 266 261 252 242 241 248 248 243 242 241 242 235 248 253 259 257 259 231 235 203 180 167 170 158 150 143 134 136 135
193 188 178 179 183 191 198 210 251 267 289 293 289 287 277 272 261 250 248 241 246 250 242 243 241 253 252 252 253 258 254 257 243 193 172 165 177 164 151 141 135 128 138
191 182 183 183 181 181 180 208 247 303 303 305 298 289 284 276 268 260 255 249 243 240 242 241 246 241 249 259 260 254 257 264 232 160 151 175 162 154 142 129 131 125 127
187 187 176 169 164 170 161 221 339 314 308 295 293 287 281 281 279 266 252 248 238 232 234 234 239 235 238 244 253 255 255 245 226 175 153 150 151 145 137 138 136 134 132
177 172 166 151 158 157 194 30 301 299 294 290 288 286 282 275 267 256 246 236 226 229 230 236 226 223 226 245 251 259 266 236 162 152 146 150 148 153 157 146 131 130 122
168 169 156 161 164 180 82 271 286 287 292 295 293 288 288 273 257 232 238 227 221 224 219 226 221 207 227 240 243 251 219 163 154 156 165 166 166 158 151 146 139 137 129
169 167 167 172 177 161 238 271 286 295 301 298 299 302 295 283 234 244 232 234 220 223 213 208 213 208 223 249 250 258 196 190 170 167 171 174 166 161 149 144 144 146 130
172 172 170 174 168 207 244 271 290 291 302 307 300 297 287 275 268 258 235 230 231 231 199 198 215 205 210 231 255 180 184 175 177 177 183 169 160 154 150 144 142 134 131
173 179 180 184 197 230 263 285 291 296 281 300 305 314 302 293 297 258 245 226 218 217 204 201 220 194 195 216 177 161 148 122 136 131 143 150 151 147 140 137 153 149 153
180 176 180 180 204 242 257 265 267 278 291 302 295 290 288 291 314 289 245 237 216 205 184 206 207 201 181 184 180 166 154 145 139 134 138 148 151 151 158 161 159 150 156
156 158 165 191 231 245 238 252 278 285 288 293 295 303 301 305 306 312 290 239 219 207 194 198 204 196 178 188 183 177 170 144 140 137 135 140 152 153 161 160 157 155 160
130 160 183 217 237 228 251 271 280 280 279 276 288 295 300 317 319 307 310 266 237 196 199 198 184 178 180 179 178 150 136 133 140 141 147 150 148 154 159 157 166 151 174
131 112 174 188 257 266 257 256 255 250 261 270 282 296 303 308 291 308 313 307 223 194 169 184 166 164 161 156 142 143 141 142 145 152 158 160 164 160 147 149 163 156 167
183 219 236 241 254 236 249 250 243 246 241 255 254 274 287 284 296 309 319 333 168 141 151 176 160 135 135 119 114 140 143 155 158 160 158 148 145 155 160 152 155 161 161
275 289 293 283 252 262 233 215 216 233 231 242 246 248 268 280 271 304 299 159 138 128 114 114 131 138 144 134 127 131 118 141 150 149 148 149 154 157 163 165 167 167 173
289 285 290 284 285 277 265 220 235 227 216 234 256 247 228 257 285 302 293 205 157 148 121 161 153 155 163 156 154 148 149 145 144 151 157 157 157 161 158 163 166 169 170
321 298 281 281 284 289 247 206 201 219 239 242 233 238 245 266 278 261 190 166 163 157 161 171 164 159 157 157 160 168 159 155 136 150 160 161 160 162 159 163 165 170 168
247 244 278 281 270 263 233 217 204 201 206 211 229 229 235 225 252 220 159 138 148 250 193 188 178 164 152 157 156 151 141 143 150 147 154 160 160 158 161 167 171 172 164
258 275 284 293 275 259 251 218 206 205 213 221 188 211 214 219 213 184 171 202 197 200 188 196 185 169 157 163 159 152 152 153 148 145 136 148 158 159 166 172 174 176 167
272 252 276 285 281 252 252 214 192 204 214 213 213 212 164 166 184 176 190 198 206 213 203 197 191 185 166 160 153 147 145 146 148 149 145 145 151 159 165 164 166 170 175
276 279 281 284 276 251 242 225 217 200 205 223 222 186 196 205 210 200 195 201 210 209 190 199 187 180 176 176 161 162 164 161 162 159 159 160 161 165 152 157 165 173 170
259 274 279 269 280 256 239 224 221 211 206 208 202 203 200 222 229 211 206 199 198 214 196 193 185 181 180 179 181 174 171 169 171 169 165 160 168 173 168 166 166 169 160
268 277 277 263 261 258 236 208 208 202 194 203 215 219 204 213 222 218 206 187 184 187 196 184 183 181 175 185 183 186 187 184 181 170 169 171 176 175 172 171 172 171 169
261 267 276 284 269 252 234 220 208 211 231 205 187 187 187 202 214 211 193 173 176 180 171 174 180 181 175 172 185 190 194 176 179 179 174 177 182 172 174 174 179 182 177
269 264 274 282 274 259 231 214 195 174 187 157 143 137 122 100 98 75 71 62 90 125 126 154 171 173 174 177 182 183 178 159 176 175 179 183 183 179 183 185 181 183 182
271 264 265 268 267 240 226 197 170 170 168 145 121 105 103 94 86 83 80 81 84 82 81 68 59 83 145 173 187 181 167 172 176 171 175 181 181 183 184 187 182 189 188